Home > Time Zones > World Clock > Weather > France > Lyon > Past weeks

Flag for France Weather past 2 weeks in Lyon, France

Now
36 °F

Drizzle. Fog.


Feels Like: 36 °F
Forecast: 32 / 44 °F
Wind: 1 mph from North

Location: Lyon / Bron

Current Time: Jan 27, 2015 at 5:22:16 AM

Latest Report: Jan 27, 2015 at 4:30 AM


Visibility: 2 mi

Pressure: 30.24 "Hg

Humidity: 93%

Dew point: 34 °F

Location of LyonLocation

Historic Weather in Lyon — Graph

°F

Lyon temperature yesterday

Maximum temperature yesterday: 39 °F (at 11:30 AM)
Minimum temperature yesterday: 34 °F (at 7:00 PM)
Average temperature yesterday: 36 °F

Past Weeks' High & Low Weather Summary

 TemperatureHumidityPressure
High59 °F (Jan 14, 1:30 PM)100% (Jan 18, 10:00 AM)30.54 "Hg (Jan 18, 10:00 AM)
Low27 °F (Jan 12, 7:00 AM)41% (Jan 14, 2:00 PM)29.68 "Hg (Jan 16, 5:30 AM)
Average40 °F78%30.05 "Hg
* Reported Jan 12 3:00 AM — Jan 27 3:30 AM, Lyon, Weather by CustomWeather, © 2014

Note: Actual official high and low records may vary slightly from our data, if they occured in-between our weather recording intervals... More about our weather records

Advertising

Lyon weather history for previous 24 hours

 ConditionsComfort  
Time TempWeatherWind HumidityBarometerVisibility
3:30 AM
Jan 27
36 °FLight rain. Fog.No wind93%30.24 "Hg1 mi
3:00 AM36 °FDrizzle. Fog.No wind93%30.24 "Hg1 mi
2:30 AM36 °FFog.No wind93%30.24 "Hg2 mi
2:00 AM36 °FLight snow. Fog.No wind93%30.24 "Hg1 mi
1:30 AM36 °FLight rain. Fog.No wind93%30.24 "Hg1 mi
1:00 AM36 °FLight rain. Fog.2 mph93%30.27 "Hg1 mi
12:30 AM36 °FDrizzle. Fog.2 mph93%30.27 "Hg1 mi
12:00 AM36 °FLight rain. Fog.2 mph93%30.27 "Hg1 mi
11:30 PM
Jan 26
36 °FLight rain. Fog.5 mph93%30.27 "Hg1 mi
11:00 PM36 °FLight rain. Fog.2 mph93%30.27 "Hg1 mi
10:30 PM36 °FFog.No wind93%30.27 "Hg1 mi
10:00 PM36 °FDrizzle. Fog.2 mph93%30.27 "Hg1 mi
9:30 PM34 °FFog.2 mph100%30.30 "Hg3 mi
9:00 PM34 °FLight rain. Fog.No wind93%30.30 "Hg2 mi
8:30 PM34 °FLight rain. Fog.2 mph93%30.30 "Hg2 mi
8:00 PM34 °FLight rain. Fog.No wind93%30.30 "Hg2 mi
7:30 PM34 °FLight snow. Fog.3 mph93%30.30 "Hg2 mi
7:00 PM34 °FLight snow. Fog.2 mph93%30.30 "Hg2 mi
6:30 PM36 °FLight rain. Low clouds.5 mph87%30.30 "Hg4 mi
6:00 PM36 °FLight rain. Passing clouds.6 mph93%30.30 "Hg5 mi
5:30 PM37 °FLight rain. Low clouds.6 mph87%30.30 "Hg5 mi
5:00 PM37 °FLight rain. Overcast.3 mph87%30.30 "Hg6 mi
4:30 PM37 °FLight rain. Mostly cloudy.3 mph87%30.30 "Hg5 mi
4:00 PM39 °FLight rain. Overcast.3 mph81%30.30 "HgN/A
3:30 PM39 °FLight rain. Overcast.3 mph81%30.30 "HgN/A
3:00 PM39 °FMostly cloudy.No wind75%30.33 "HgN/A
2:30 PM39 °FLight rain. Overcast.1 mph75%30.33 "HgN/A
2:00 PM39 °FLight rain. More clouds than sun.2 mph75%30.33 "HgN/A
1:30 PM39 °FOvercast.6 mph81%30.36 "HgN/A
1:00 PM39 °FOvercast.5 mph75%30.36 "HgN/A
12:30 PM39 °FOvercast.5 mph75%30.36 "HgN/A
12:00 PM39 °FOvercast.8 mph75%30.39 "HgN/A
11:30 AM39 °FMostly cloudy.10 mph75%30.39 "HgN/A
11:00 AM37 °FMostly cloudy.10 mph81%30.39 "HgN/A
10:30 AM37 °FLight rain. Partly sunny.9 mph81%30.39 "HgN/A
10:00 AM37 °FBroken clouds.8 mph81%30.36 "HgN/A
9:30 AM36 °FMore clouds than sun.8 mph87%30.39 "HgN/A
9:00 AM36 °FMostly cloudy.8 mph87%30.39 "HgN/A
8:30 AM36 °FOvercast.8 mph87%30.39 "HgN/A
8:00 AM36 °FMostly cloudy.8 mph87%30.39 "HgN/A
7:30 AM36 °FOvercast.7 mph87%30.39 "HgN/A
7:00 AM36 °FMostly cloudy.7 mph87%30.39 "HgN/A
6:30 AM36 °FOvercast.8 mph87%30.39 "HgN/A
6:00 AM36 °FMostly cloudy.10 mph81%30.39 "HgN/A
5:30 AM36 °FOvercast.12 mph81%30.39 "HgN/A
5:00 AM36 °FMostly cloudy.9 mph81%30.39 "HgN/A
Weather by CustomWeather, © 2014

See weather overviewHow to use our weather pages